Tracking 29892 objects as of 21-Nov-2024
HD Live streaming from Space Station
objects crossing your sky now

PEGASUS DEB

Track PEGASUS DEB now!
10-day predictions


NORAD ID: 24602
Int'l Code: 1994-029ZE
Perigee: 555.2 km
Apogee: 1,678.9 km
Inclination: 81.5 °
Period: 107.5 minutes
Semi major axis: 7488 km
RCS: 0.0131 m2 (small)
Launch date: May 19, 1994
Source: United States (US)
Launch site: AIR FORCE WESTERN TEST RANGE (AFWTR)

Note: This is SATELLITE DEBRIS
Your satellite tracking list
Your tracking list is empty




NASA's NSSDC Master Catalog

Two Line Element Set (TLE):
1 24602U 94029ZE  24325.42568440  .00006700  00000-0  22256-2 0  9999
2 24602  81.5250 320.4207 0750301  44.1778 321.6821 13.39826477368440
Source of the keplerian elements: AFSPC